Location: Fours
(44.3167°N, 6.7000°E)
Time: 18:24:17
(UTC+00:00)

Daily predictions for brighter satellites

Satellite Brightness Start Highest point End
(mag) Time Altitude Azimuth Time Altitude Azimuth Time Altitude Azimuth
Cosmos 2219 3.2 17:06:34 10° NNW 17:12:13 78° ENE 17:17:49 10° SSE
CZ-2D R/B 3.3 17:10:47 10° SSE 17:14:34 61° ENE 17:18:23 10° N
Cosmos 1536 Rocket 3.6 17:12:10 10° N 17:16:32 87° WSW 17:20:51 10° S
Cosmos 1174 4.4 17:16:56 10° S 17:19:48 25° ESE 17:22:25 10° ENE
Cosmos 1048 Rocket 4.1 17:14:41 10° NNW 17:20:01 57° ENE 17:25:13 10° SE
CZ-4C R/B 3.9 17:17:47 10° NE 17:20:47 27° E 17:23:41 10° SSE
Cosmos 2298 Rocket 4.2 17:16:06 10° S 17:21:11 50° ESE 17:26:19 10° NNE
H-2A R/B 3.5 17:17:41 10° ESE 17:21:22 27° ENE 17:24:58 10° N
MOS 1-B 4.4 17:16:09 10° SSE 17:21:57 86° ENE 17:27:46 10° NNW
Cosmos 2360 4.3 17:16:34 10° S 17:22:05 56° ESE 17:27:40 10° NNE
Cosmos 1980 Rocket 2.9 17:17:44 10° SSE 17:22:42 33° ESE 17:27:43 10° NE
Cosmos 2297 Rocket 2.8 17:18:39 10° NNW 17:24:15 65° WSW 17:29:50 10° SSE
Cosmos 389 Rocket 3.0 17:21:21 10° SSE 17:24:26 33° E 17:27:32 10° NNE
Cosmos 2218 Rocket 4.1 17:18:59 10° S 17:25:14 88° W 17:31:37 10° N
Cosmos 2263 Rocket 3.3 17:21:58 10° N 17:26:23 23° NE 17:30:45 10° ESE
SL-8 Rocket 4.5 17:25:01 10° SSW 17:31:17 68° W 17:37:36 10° N
Cosmos 1656 4.4 17:26:05 10° SW 17:31:31 57° WNW 17:36:55 10° NNE
Cosmos 1821 Rocket 4.3 17:25:27 10° SSE 17:31:31 48° E 17:37:37 10° NNE
X-37B 1.3 17:30:24 10° SW 17:33:24 40° SSE 17:35:50 14° E
deb Chang Zheng 4 3.6 17:30:32 10° SSE 17:34:43 80° WSW 17:38:57 10° NNW
ARGOS 3.3 17:30:23 10° SE 17:35:36 52° ENE 17:40:51 10° N
Genesis I 3.5 17:32:19 10° NNW 17:36:21 51° NE 17:40:19 10° SE
Cosmos 405 4.3 17:35:20 10° SSW 17:38:37 43° WNW 17:41:55 10° N
CZ-4 R/B 4.4 17:37:06 10° SSE 17:41:11 60° ENE 17:45:16 10° N
Cosmos 1697 Rocket 2.7 17:35:31 10° SSW 17:41:11 88° ESE 17:46:52 10° NNE
Cosmos 1125 Rocket 3.5 17:36:06 10° S 17:41:17 62° ESE 17:46:28 10° NNE
Cosmos 1908 3.4 17:41:08 10° SSE 17:44:52 49° E 17:48:38 10° NNE
Cosmos 2098 4.0 17:43:40 10° S 17:46:41 85° E 17:49:44 10° N
Cosmos 1607 4.0 17:41:54 10° NNW 17:48:09 60° NE 17:54:15 10° SE
Cosmos 1356 3.9 17:45:23 10° NNW 17:48:44 61° W 17:52:04 10° S
Cosmos 2227 Rocket 3.0 17:45:08 10° NNW 17:50:41 55° WSW 17:56:10 10° S
SJ-11-01 4.2 17:46:11 10° SSE 17:50:49 74° ENE 17:55:31 10° N
Cosmos 2278 4.0 17:46:46 10° S 17:52:04 43° ESE 17:57:24 10° NE
Iridium 4 Rocket 3.8 17:48:32 10° NNE 17:52:31 33° E 17:56:46 10° SSE
Cosmos 494 Rocket 4.0 17:48:30 10° NNW 17:53:45 88° ENE 17:58:56 10° SSE
Landsat 5 3.6 17:49:36 10° NNE 17:53:56 88° WNW 17:58:23 10° SSW
MOS 1-B Rocket 4.1 17:49:02 10° NNE 17:56:07 74° ESE 18:02:09 10° S
CZ-2C R/B 2.7 17:50:40 10° NNE 17:56:19 80° ESE 18:01:53 10° S
SKYMED 2 3.7 17:52:34 10° N 17:56:55 77° WNW 18:01:15 10° SSW
Cosmos 1934 Rocket 4.3 17:51:39 10° SSE 17:57:17 40° E 18:02:52 10° NNE
Timation 2 Rocket 4.5 17:50:46 10° NNW 17:57:39 73° WSW 18:04:20 10° SSE
Okean O Rocket 2.0 17:57:10 10° S 18:01:28 67° WSW 18:05:49 10° NNW
Meteor 1-16 Rocket 4.2 17:58:36 10° S 18:04:29 72° E 18:10:20 10° NNE
Cosmos 2123 Rocket 4.2 18:01:19 10° N 18:07:27 49° ENE 18:13:33 10° SSE
CZ-4 R/B 1.3 18:03:48 10° SSE 18:07:41 60° ENE 18:11:39 10° N
YAOGAN 1 2.5 18:04:11 10° SSE 18:08:27 62° ENE 18:12:44 10° N
Cosmos 1703 3.1 18:04:53 10° N 18:08:50 72° E 18:12:43 10° SSE
SL-16 R/B 3.4 18:05:31 10° SSE 18:08:50 21° ESE 18:08:50 21° ESE
DMSP B5D2-2 4.3 18:04:51 10° NNE 18:09:55 46° E 18:14:56 10° S
Okean-O 3.1 18:07:42 20° SE 18:10:09 37° ENE 18:14:15 10° N
Cosmos 1455 Rocket 3.0 18:08:49 10° S 18:13:10 67° E 18:17:34 10° NNE
Cosmos 2082 4.0 18:10:19 10° NNW 18:15:55 69° WSW 18:21:29 10° SSE
Spot 2 4.0 18:12:39 10° S 18:16:41 78° WSW 18:20:53 10° NNW
Cosmos 1953 2.5 18:13:17 10° SSW 18:17:18 77° W 18:21:23 10° N
Tiangong 3.7 18:18:14 10° S 18:18:36 11° S 18:18:36 11° S
H-2A R/B 1.9 18:16:09 10° NNE 18:20:11 55° ESE 18:24:14 10° S
Okean 1-7 Rocket 3.7 18:17:57 10° N 18:22:15 51° ENE 18:24:34 25° SE
Cosmos 1328 3.8 18:19:19 10° N 18:23:17 56° E 18:25:12 28° SSE
Cosmos 1544 Rocket 3.6 18:22:04 10° S 18:26:24 53° E 18:30:45 10° NNE
H-2A R/B 3.9 18:25:59 10° SSW 18:30:45 33° W 18:35:38 10° NNW
Cosmos 1300 3.5 18:30:50 10° S 18:38:01 12° NNE 18:38:20 10° NNE
ATLAS 3B R/B 3.6 18:28:30 10° WSW 18:34:45 44° NW 18:41:18 10° NNE
Lacrosse 4 Rocket 3.5 18:34:29 10° N 18:36:04 15° NNE 18:36:04 15° NNE
Cosmos 405 Rocket 3.1 18:34:33 10° NNW 18:38:26 66° W 18:42:23 10° S
ATLAS 5 CENTAUR R/B 1.3 18:40:43 10° SW 18:44:35 81° NW 18:45:39 49° NNE
NOSS 3-1 (C) 4.0 18:44:46 10° S 18:47:41 30° SSE 18:47:41 30° SSE
Cosmos 2227 4.1 18:47:38 10° NNW 18:53:25 77° ENE 18:55:04 48° SE
SL-8 R/B 3.8 18:49:13 10° SW 18:53:45 59° SSE 18:53:45 59° SSE
IRS-1C Rocket 4.4 18:50:31 10° S 18:55:44 67° WSW 19:01:00 10° NNW
H-2A R/B 4.4 18:52:45 10° SSW 18:56:41 31° W 19:00:34 10° NW
Cosmos 1605 Rocket 3.8 18:50:41 10° S 18:56:52 74° E 19:03:10 10° NNE
Cosmos 1980 Rocket 3.4 19:01:16 10° SW 19:06:34 40° WNW 19:11:57 10° NNE
Cosmos 1447 Rocket 4.3 19:01:31 10° N 19:07:38 65° E 19:07:59 64° E
Meteor 2-10 Rocket 4.2 19:02:00 10° S 19:09:28 43° NNE 19:13:09 10° NNE
X-37B 3.0 19:06:46 10° W 19:08:08 23° W 19:08:08 23° W
Cosmos 2263 Rocket 2.5 19:05:15 10° NNW 19:10:46 63° WSW 19:12:46 38° S
CSL-04 Debris 4.3 19:08:41 29° S 19:11:25 69° WSW 19:16:50 10° NNW
Cosmos 1269 Rocket 4.5 19:07:25 10° NNW 19:12:38 59° WSW 19:14:31 37° SSW
Cosmos 371 Rocket 4.3 19:25:32 10° SSW 19:28:53 41° SW 19:28:53 41° SW
CSL-04 Rocket 4.4 19:30:11 34° SSW 19:32:15 51° W 19:37:40 10° NNW
USA 215 4.4 19:42:02 30° NNE 19:42:50 31° N 19:48:23 10° NW
Gbstr 26 Del rocket 4.5 19:35:44 10° WNW 19:43:17 71° SW 19:43:59 68° S
Cosmos 1844 Rocket 4.0 19:41:23 10° NNW 19:44:20 31° N 19:44:20 31° N
SL-16 R/B 3.5 19:47:43 10° SW 19:50:51 33° SW 19:50:51 33° SW
Cosmos 2344 4.3 20:05:01 10° NW 20:14:25 83° SW 20:15:55 72° SSE
